When you browse on this site, cookies collect data to enhance your experience and personalize the content and advertising you see.
Visit our Privacy Policy to learn more. By continuing to use the site, you agree to this use of cookies and data.
  • In Hungary
  • List of Countries
  • For 7 days
  • Water Temperature
  • Weather Map
  • News
  • Weather Widgets
  • user-avatar
    Login

    Hourly Weather Berezovskiy

    Today, 25 January, Saturday

    Time Temperature Precipitation Wind Pressure Humidity
    00:00 -2°C° 0.5 mm 7 mps 730 mmHg 97%
    01:00 -2°C° 0.1 mm 7 mps 730 mmHg 97%
    02:00 -2°C° 0.1 mm 7 mps 730 mmHg 96%
    03:00 -1°C° 0.1 mm 6 mps 730 mmHg 96%
    04:00 -1°C° 0.2 mm 7 mps 730 mmHg 96%
    05:00 -1°C° 0.2 mm 7 mps 730 mmHg 95%
    06:00 -1°C° 0.2 mm 7 mps 729 mmHg 95%
    07:00 -2°C° 0.1 mm 6 mps 730 mmHg 95%
    08:00 -2°C° 0.1 mm 6 mps 730 mmHg 94%
    09:00 -2°C° 0 mm 6 mps 730 mmHg 96%
    10:00 -2°C° 0.1 mm 6 mps 730 mmHg 95%
    11:00 -2°C° 0.1 mm 6 mps 730 mmHg 95%
    12:00 -2°C° 0.1 mm 7 mps 730 mmHg 94%
    13:00 -2°C° 0.1 mm 7 mps 729 mmHg 95%
    14:00 -2°C° 0.1 mm 8 mps 729 mmHg 95%
    15:00 -2°C° 0 mm 8 mps 728 mmHg 96%
    16:00 -2°C° 0.1 mm 8 mps 728 mmHg 95%
    17:00 -3°C° 0.1 mm 9 mps 728 mmHg 93%
    18:00 -3°C° 0.1 mm 9 mps 728 mmHg 92%
    19:00 -4°C° 0.1 mm 8 mps 729 mmHg 88%
    20:00 -3°C° 0.1 mm 7 mps 729 mmHg 84%
    21:00 -4°C° 0.1 mm 7 mps 730 mmHg 80%
    22:00 -4°C° 0 mm 7 mps 730 mmHg 80%
    23:00 -5°C° 0 mm 6 mps 731 mmHg 80%

    Tomorrow, 26 January, Sunday

    Time Temperature Precipitation Wind Pressure Humidity
    00:00 -5°C° 0 mm 6 mps 732 mmHg 80%
    01:00 -5°C° 0 mm 6 mps 732 mmHg 80%
    02:00 -5°C° 0 mm 6 mps 733 mmHg 81%
    03:00 -6°C° 0 mm 6 mps 733 mmHg 81%
    04:00 -6°C° 0 mm 6 mps 734 mmHg 82%
    05:00 -6°C° 0 mm 6 mps 735 mmHg 83%
    06:00 -6°C° 0 mm 6 mps 735 mmHg 85%
    07:00 -6°C° 0 mm 5 mps 736 mmHg 85%
    08:00 -6°C° 0 mm 5 mps 737 mmHg 85%
    09:00 -6°C° 0 mm 5 mps 737 mmHg 86%
    10:00 -6°C° 0 mm 5 mps 738 mmHg 86%
    11:00 -5°C° 0 mm 5 mps 739 mmHg 85%
    12:00 -5°C° 0 mm 5 mps 739 mmHg 85%
    13:00 -5°C° 0 mm 5 mps 739 mmHg 85%
    14:00 -5°C° 0 mm 5 mps 739 mmHg 85%
    15:00 -5°C° 0 mm 5 mps 739 mmHg 84%
    16:00 -5°C° 0 mm 5 mps 739 mmHg 84%
    17:00 -5°C° 0 mm 5 mps 739 mmHg 84%
    18:00 -5°C° 0 mm 6 mps 739 mmHg 84%
    19:00 -5°C° 0 mm 6 mps 738 mmHg 85%
    20:00 -6°C° 0 mm 7 mps 738 mmHg 86%
    21:00 -4°C° 0 mm 7 mps 738 mmHg 87%
    22:00 -4°C° 0 mm 7 mps 738 mmHg 88%
    23:00 -5°C° 0 mm 8 mps 737 mmHg 89%

    Day after tomorrow, 27 January, Monday

    Time Temperature Precipitation Wind Pressure Humidity
    00:00 -5°C° 0 mm 8 mps 737 mmHg 91%
    01:00 -4°C° 0 mm 8 mps 737 mmHg 92%
    02:00 -4°C° 0 mm 8 mps 737 mmHg 93%
    03:00 -3°C° 0 mm 7 mps 737 mmHg 94%
    04:00 -2°C° 0 mm 7 mps 737 mmHg 94%
    05:00 -2°C° 0 mm 7 mps 737 mmHg 94%
    06:00 -2°C° 0 mm 7 mps 737 mmHg 94%
    07:00 -2°C° 0 mm 6 mps 737 mmHg 95%
    08:00 -2°C° 0 mm 6 mps 738 mmHg 95%
    09:00 -1°C° 0 mm 5 mps 738 mmHg 96%
    10:00 -1°C° 0 mm 5 mps 738 mmHg 96%
    11:00 -1°C° 0 mm 5 mps 739 mmHg 97%
    12:00 -1°C° 0 mm 4 mps 739 mmHg 98%
    13:00 -1°C° 0 mm 4 mps 739 mmHg 98%
    14:00 -1°C° 0 mm 4 mps 739 mmHg 98%
    15:00 0°C° 0 mm 3 mps 739 mmHg 98%
    16:00 0°C° 0 mm 3 mps 740 mmHg 98%
    17:00 -1°C° 0 mm 3 mps 740 mmHg 98%
    18:00 -1°C° 0 mm 3 mps 740 mmHg 98%
    19:00 -1°C° 0.1 mm 3 mps 740 mmHg 98%
    20:00 -1°C° 0.1 mm 3 mps 740 mmHg 98%
    21:00 -1°C° 0.1 mm 3 mps 740 mmHg 98%
    22:00 -1°C° 0.1 mm 3 mps 740 mmHg 98%
    23:00 -1°C° 0.1 mm 3 mps 740 mmHg 98%

    28 January, Tuesday

    Time Temperature Precipitation Wind Pressure Humidity
    00:00 -1°C° 0.1 mm 3 mps 739 mmHg 98%
    01:00 -1°C° 0.4 mm 3 mps 739 mmHg 97%
    02:00 -1°C° 0.4 mm 3 mps 739 mmHg 97%
    03:00 -2°C° 0.4 mm 3 mps 739 mmHg 97%
    04:00 -2°C° 0.2 mm 3 mps 738 mmHg 97%
    05:00 -2°C° 0.2 mm 3 mps 738 mmHg 96%
    06:00 -2°C° 0.2 mm 3 mps 738 mmHg 96%
    07:00 -3°C° 0.1 mm 4 mps 738 mmHg 96%
    08:00 -3°C° 0.1 mm 4 mps 738 mmHg 96%
    09:00 -3°C° 0.1 mm 4 mps 738 mmHg 96%
    10:00 -3°C° 0 mm 4 mps 738 mmHg 96%
    11:00 -2°C° 0 mm 4 mps 738 mmHg 96%
    12:00 -2°C° 0 mm 5 mps 738 mmHg 96%
    13:00 -2°C° 0 mm 4 mps 737 mmHg 95%
    14:00 -2°C° 0 mm 4 mps 737 mmHg 95%
    15:00 -2°C° 0 mm 4 mps 737 mmHg 94%
    16:00 -2°C° 0 mm 4 mps 737 mmHg 94%
    17:00 -2°C° 0 mm 4 mps 737 mmHg 93%
    18:00 -2°C° 0 mm 4 mps 737 mmHg 92%
    19:00 -2°C° 0 mm 4 mps 737 mmHg 93%
    20:00 -2°C° 0 mm 4 mps 737 mmHg 93%
    21:00 -1°C° 0 mm 3 mps 737 mmHg 94%
    22:00 -1°C° 0 mm 3 mps 737 mmHg 94%
    23:00 -1°C° 0 mm 3 mps 737 mmHg 95%

    29 January, Wednesday

    Time Temperature Precipitation Wind Pressure Humidity
    00:00 -1°C° 0 mm 3 mps 737 mmHg 95%
    01:00 -1°C° 0 mm 3 mps 737 mmHg 95%
    02:00 -1°C° 0 mm 2 mps 737 mmHg 95%
    03:00 -1°C° 0 mm 2 mps 737 mmHg 96%
    04:00 -1°C° 0 mm 2 mps 737 mmHg 96%
    05:00 -1°C° 0 mm 2 mps 736 mmHg 95%
    06:00 -1°C° 0 mm 3 mps 736 mmHg 95%
    07:00 -1°C° 0 mm 3 mps 736 mmHg 95%
    08:00 -1°C° 0 mm 3 mps 736 mmHg 95%
    09:00 -1°C° 0 mm 3 mps 736 mmHg 95%
    10:00 -1°C° 0 mm 3 mps 735 mmHg 96%
    11:00 -2°C° 0 mm 4 mps 735 mmHg 97%
    12:00 -1°C° 0 mm 4 mps 735 mmHg 99%
    13:00 -1°C° 0 mm 4 mps 734 mmHg 99%
    14:00 -1°C° 0 mm 4 mps 734 mmHg 98%
    15:00 -1°C° 0 mm 5 mps 733 mmHg 98%
    16:00 -1°C° 0.1 mm 5 mps 733 mmHg 98%
    17:00 -1°C° 0.1 mm 5 mps 732 mmHg 98%
    18:00 -1°C° 0.1 mm 5 mps 732 mmHg 97%
    19:00 0°C° 0.3 mm 5 mps 731 mmHg 97%
    20:00 -1°C° 0.3 mm 6 mps 731 mmHg 97%
    21:00 -1°C° 0.3 mm 6 mps 731 mmHg 97%
    22:00 -1°C° 0.2 mm 6 mps 730 mmHg 97%
    23:00 -1°C° 0.2 mm 6 mps 730 mmHg 97%

    30 January, Thursday

    Time Temperature Precipitation Wind Pressure Humidity
    00:00 -1°C° 0.2 mm 6 mps 729 mmHg 96%
    01:00 -1°C° 0.1 mm 6 mps 729 mmHg 96%
    02:00 -1°C° 0.1 mm 6 mps 728 mmHg 97%
    03:00 -1°C° 0.1 mm 7 mps 728 mmHg 97%
    04:00 -1°C° 0.3 mm 6 mps 728 mmHg 97%
    05:00 -1°C° 0.3 mm 6 mps 728 mmHg 97%
    06:00 -1°C° 0.3 mm 6 mps 727 mmHg 97%
    07:00 -2°C° 0.1 mm 6 mps 727 mmHg 93%
    08:00 -2°C° 0.1 mm 6 mps 728 mmHg 90%
    09:00 -2°C° 0.1 mm 5 mps 728 mmHg 87%
    10:00 -3°C° 0 mm 6 mps 728 mmHg 85%
    11:00 -3°C° 0 mm 6 mps 728 mmHg 84%
    12:00 -2°C° 0 mm 7 mps 728 mmHg 83%
    13:00 -2°C° 0 mm 7 mps 728 mmHg 82%
    14:00 -3°C° 0 mm 7 mps 728 mmHg 81%
    15:00 -3°C° 0 mm 7 mps 729 mmHg 80%
    16:00 -3°C° 0.1 mm 7 mps 728 mmHg 84%
    17:00 -3°C° 0.1 mm 7 mps 728 mmHg 89%
    18:00 -3°C° 0.1 mm 7 mps 728 mmHg 93%
    19:00 -4°C° 0.2 mm 8 mps 728 mmHg 93%
    20:00 -4°C° 0.2 mm 8 mps 727 mmHg 94%
    21:00 -4°C° 0.2 mm 8 mps 727 mmHg 95%
    22:00 -4°C° 0.4 mm 8 mps 727 mmHg 95%
    23:00 -4°C° 0.4 mm 9 mps 727 mmHg 96%
    Show more